| time (UTC) | temp F | wind direction | speed knots | gust knots | rain 1hr in | rain 24hr in | rain mn in | humidity % | barometer mb |
| 20260509131529 | 50 | 206 | 0.0 | 7.0 | 0.00 | 0.00 | 0.00 | 51 | 1011.5 |
| 20260509130055 | 49 | 181 | 1.7 | 5.2 | 0.00 | 0.00 | 0.00 | 55 | 1011.6 |
| 20260509124551 | 48 | 188 | 0.0 | 7.8 | 0.00 | 0.00 | 0.00 | 54 | 1011.8 |
| 20260509123046 | 47 | 186 | 0.0 | 4.3 | 0.00 | 0.00 | 0.00 | 58 | 1011.8 |
| 20260509121540 | 46 | 178 | 0.0 | 0.0 | 0.00 | 0.00 | 0.00 | 66 | 1011.9 |
| 20260509120042 | 45 | 178 | 0.0 | 0.0 | 0.00 | 0.00 | 0.00 | 69 | 1012.0 |
| 20260509114532 | 43 | 178 | 0.0 | 0.0 | 0.00 | 0.00 | 0.00 | 69 | 1011.9 |
| 20260509113025 | 42 | 178 | 0.0 | 0.0 | 0.00 | 0.00 | 0.00 | 71 | 1012.0 |
| 20260509111521 | 41 | 178 | 0.0 | 0.0 | 0.00 | 0.00 | 0.00 | 73 | 1011.9 |
| 20260509110017 | 39 | 178 | 0.0 | 0.0 | 0.00 | 0.00 | 0.00 | 76 | 1012.0 |
| 20260509104522 | 37 | 178 | 0.0 | 0.0 | 0.00 | 0.00 | 0.00 | 78 | 1011.9 |
| 20260509103008 | 36 | 178 | 0.0 | 0.0 | 0.00 | 0.00 | 0.00 | 78 | 1011.7 |
| 20260509101505 | 35 | 178 | 0.0 | 3.5 | 0.00 | 0.00 | 0.00 | 77 | 1011.5 |
| 20260509100004 | 34 | 180 | 0.0 | 0.0 | 0.00 | 0.00 | 0.00 | 77 | 1011.3 |
| 20260509094559 | 34 | 265 | 0.0 | 0.0 | 0.00 | 0.00 | 0.00 | 76 | 1011.2 |
| 20260509093041 | 34 | 265 | 0.0 | 0.0 | 0.00 | 0.00 | 0.00 | 77 | 1010.9 |
| 20260509091527 | 33 | 265 | 0.0 | 0.0 | 0.00 | 0.00 | 0.00 | 77 | 1010.9 |
| 20260509090024 | 33 | 265 | 0.0 | 0.0 | 0.00 | 0.00 | 0.00 | 78 | 1010.8 |
| 20260509084533 | 33 | 266 | 0.0 | 0.0 | 0.00 | 0.00 | 0.00 | 78 | 1010.6 |
| 20260509083022 | 33 | 265 | 0.0 | 0.0 | 0.00 | 0.00 | 0.00 | 78 | 1010.7 |
| 20260509081533 | 33 | 265 | 0.0 | 0.0 | 0.00 | 0.00 | 0.00 | 76 | 1010.9 |
| 20260509080028 | 34 | 266 | 0.0 | 0.0 | 0.00 | 0.00 | 0.00 | 74 | 1010.8 |
| 20260509074512 | 34 | 266 | 0.0 | 0.0 | 0.00 | 0.00 | 0.00 | 73 | 1010.9 |
| 20260509073010 | 35 | 265 | 0.0 | 0.0 | 0.00 | 0.00 | 0.00 | 72 | 1010.9 |
| 20260509071509 | 35 | 266 | 0.0 | 0.0 | 0.00 | 0.00 | 0.00 | 71 | 1010.9 |
| 20260509070008 | 37 | 266 | 0.0 | 0.0 | 0.00 | 0.00 | 0.00 | 68 | 1010.9 |
| 20260509064509 | 37 | 265 | 0.0 | 0.0 | 0.00 | 0.00 | 0.00 | 69 | 1010.9 |
| 20260509063100 | 37 | 265 | 0.0 | 0.0 | 0.00 | 0.00 | 0.00 | 70 | 1010.9 |
| 20260509061558 | 36 | 266 | 0.0 | 0.0 | 0.00 | 0.00 | 0.00 | 72 | 1010.9 |
| 20260509060056 | 35 | 265 | 0.0 | 0.0 | 0.00 | 0.00 | 0.00 | 73 | 1010.8 |
| 20260509054558 | 35 | 265 | 0.0 | 0.0 | 0.00 | 0.00 | 0.00 | 74 | 1010.8 |
| 20260509053058 | 35 | 265 | 0.0 | 0.0 | 0.00 | 0.00 | 0.00 | 73 | 1010.7 |
| 20260509051558 | 36 | 265 | 0.0 | 0.0 | 0.00 | 0.00 | 0.00 | 72 | 1010.8 |
| 20260509050050 | 36 | 266 | 0.0 | 0.0 | 0.00 | 0.00 | 0.00 | 73 | 1010.7 |
| 20260509044545 | 36 | 265 | 0.0 | 0.0 | 0.00 | 0.00 | 0.00 | 73 | 1010.7 |
| 20260509043044 | 37 | 266 | 0.0 | 0.0 | 0.00 | 0.00 | 0.00 | 72 | 1010.7 |
| 20260509041543 | 36 | 265 | 0.0 | 0.0 | 0.00 | 0.00 | 0.00 | 73 | 1010.6 |
| 20260509040043 | 37 | 265 | 0.0 | 0.0 | 0.00 | 0.00 | 0.00 | 73 | 1010.5 |
| 20260509034543 | 37 | 266 | 0.0 | 0.0 | 0.00 | 0.00 | 0.00 | 72 | 1010.4 |
| 20260509033036 | 37 | 265 | 0.0 | 0.0 | 0.00 | 0.00 | 0.00 | 72 | 1010.2 |
| 20260509031535 | 38 | 265 | 0.0 | 0.0 | 0.00 | 0.00 | 0.00 | 70 | 1010.2 |
| 20260509030035 | 38 | 266 | 0.0 | 0.0 | 0.00 | 0.00 | 0.00 | 70 | 1010.1 |
| 20260509024504 | 38 | 266 | 0.0 | 0.0 | 0.00 | 0.00 | 0.00 | 70 | 1010.1 |
| 20260509023003 | 38 | 265 | 0.0 | 0.0 | 0.00 | 0.00 | 0.00 | 68 | 1010.1 |
| 20260509021601 | 39 | 265 | 0.0 | 0.0 | 0.00 | 0.00 | 0.00 | 68 | 1010.0 |
| 20260509020058 | 39 | 266 | 0.0 | 0.0 | 0.00 | 0.00 | 0.00 | 70 | 1009.9 |
| 20260509014556 | 39 | 265 | 0.0 | 0.0 | 0.00 | 0.00 | 0.00 | 69 | 1009.8 |
| 20260509013105 | 40 | 265 | 0.0 | 0.0 | 0.00 | 0.00 | 0.00 | 66 | 1009.6 |
| 20260509011552 | 40 | 266 | 0.0 | 0.0 | 0.00 | 0.00 | 0.00 | 63 | 1009.5 |
| 20260509010050 | 41 | 266 | 0.0 | 0.0 | 0.00 | 0.00 | 0.00 | 62 | 1009.3 |
| 20260509004548 | 41 | 266 | 0.0 | 0.0 | 0.00 | 0.00 | 0.00 | 60 | 1009.1 |
| 20260509003046 | 42 | 266 | 0.0 | 0.0 | 0.00 | 0.00 | 0.00 | 61 | 1009.0 |
| 20260509001543 | 43 | 265 | 0.0 | 0.0 | 0.00 | 0.00 | 0.00 | 60 | 1008.9 |
| 20260509000043 | 43 | 266 | 0.0 | 0.0 | 0.00 | 0.00 | 0.00 | 59 | 1008.9 |
| 20260508234540 | 44 | 266 | 0.0 | 0.0 | 0.00 | 0.00 | 0.00 | 58 | 1008.7 |
| 20260508233049 | 44 | 266 | 0.0 | 0.0 | 0.00 | 0.00 | 0.00 | 55 | 1008.6 |
| 20260508231538 | 44 | 265 | 0.0 | 0.0 | 0.00 | 0.00 | 0.00 | 55 | 1008.5 |
| 20260508230040 | 45 | 266 | 0.0 | 0.0 | 0.00 | 0.00 | 0.00 | 54 | 1008.5 |
| 20260508224534 | 45 | 265 | 0.0 | 0.0 | 0.00 | 0.00 | 0.00 | 56 | 1008.4 |
| 20260508223034 | 46 | 269 | 0.0 | 0.0 | 0.00 | 0.00 | 0.00 | 53 | 1008.3 |
| 20260508221601 | 48 | 269 | 0.0 | 0.0 | 0.00 | 0.00 | 0.00 | 51 | 1008.2 |
| 20260508220059 | 46 | 272 | 0.0 | 0.0 | 0.00 | 0.00 | 0.00 | 56 | 1008.2 |
| 20260508214556 | 46 | 292 | 0.0 | 0.0 | 0.00 | 0.00 | 0.00 | 54 | 1008.1 |
| 20260508213054 | 46 | 292 | 0.9 | 7.0 | 0.00 | 0.00 | 0.00 | 55 | 1008.1 |
| 20260508211551 | 45 | 217 | 0.0 | 0.0 | 0.00 | 0.00 | 0.00 | 60 | 1008.0 |
| 20260508210051 | 46 | 282 | 0.0 | 0.0 | 0.00 | 0.00 | 0.00 | 59 | 1008.0 |
| 20260508204551 | 45 | 275 | 0.0 | 0.0 | 0.00 | 0.00 | 0.00 | 60 | 1007.9 |
| 20260508203053 | 44 | 275 | 0.0 | 0.0 | 0.00 | 0.00 | 0.00 | 60 | 1007.9 |
| 20260508201545 | 45 | 281 | 0.0 | 0.9 | 0.00 | 0.00 | 0.00 | 59 | 1007.7 |
| 20260508200051 | 44 | 275 | 0.0 | 2.6 | 0.00 | 0.00 | 0.00 | 58 | 1007.7 |
| 20260508194540 | 44 | 282 | 0.0 | 3.5 | 0.00 | 0.00 | 0.00 | 56 | 1007.7 |
| 20260508193037 | 44 | 282 | 0.0 | 0.9 | 0.00 | 0.00 | 0.00 | 57 | 1007.7 |
| 20260508191538 | 45 | 285 | 0.0 | 0.0 | 0.00 | 0.00 | 0.00 | 58 | 1007.6 |
| 20260508190032 | 44 | 282 | 0.0 | 0.9 | 0.00 | 0.00 | 0.00 | 58 | 1007.6 |
| 20260508184533 | 44 | 279 | 0.0 | 11.3 | 0.00 | 0.00 | 0.00 | 58 | 1007.7 |
| 20260508183015 | 44 | 276 | 0.9 | 7.8 | 0.00 | 0.00 | 0.00 | 56 | 1007.5 |
| 20260508181512 | 45 | 292 | 0.0 | 0.9 | 0.00 | 0.00 | 0.00 | 54 | 1007.5 |
| 20260508180010 | 45 | 280 | 0.0 | 0.9 | 0.00 | 0.00 | 0.00 | 60 | 1007.5 |
| 20260508173010 | 43 | 283 | 0.0 | 0.0 | 0.00 | 0.00 | 0.00 | 66 | 1007.7 |
| 20260508171522 | 42 | 273 | 0.0 | 0.0 | 0.00 | 0.00 | 0.00 | 66 | 1007.8 |
| 20260508170009 | 41 | 286 | 0.0 | 0.0 | 0.00 | 0.00 | 0.00 | 66 | 1007.8 |
| 20260508163006 | 43 | 288 | 0.9 | 9.6 | 0.00 | 0.00 | 0.00 | 62 | 1007.6 |
| 20260508161507 | 45 | 244 | 0.0 | 2.6 | 0.00 | 0.00 | 0.00 | 62 | 1007.6 |
| 20260508160011 | 44 | 289 | 0.9 | 11.3 | 0.00 | 0.00 | 0.00 | 59 | 1007.5 |
| 20260508154502 | 44 | 277 | 0.0 | 2.6 | 0.00 | 0.00 | 0.00 | 66 | 1007.5 |
| 20260508153003 | 43 | 238 | 0.0 | 0.0 | 0.00 | 0.00 | 0.00 | 72 | 1007.6 |
| 20260508150036 | 41 | 279 | 0.0 | 0.0 | 0.00 | 0.00 | 0.00 | 73 | 1007.7 |
| 20260508144535 | 43 | 271 | 0.0 | 3.5 | 0.00 | 0.00 | 0.00 | 70 | 1007.5 |
| 20260508143005 | 44 | 292 | 0.0 | 2.6 | 0.00 | 0.00 | 0.00 | 69 | 1007.3 |
| 20260508141505 | 43 | 283 | 0.0 | 2.6 | 0.00 | 0.00 | 0.00 | 71 | 1007.3 |
| 20260508140103 | 43 | 279 | 0.0 | 1.7 | 0.00 | 0.00 | 0.00 | 71 | 1007.3 |
| 20260508134555 | 42 | 273 | 0.0 | 5.2 | 0.00 | 0.00 | 0.00 | 73 | 1007.5 |
| 20260508133056 | 42 | 275 | 0.0 | 0.0 | 0.00 | 0.00 | 0.00 | 76 | 1007.5 |